ZHONGXING-4A

Last updated on Sun Jun 21 2026 00:03:09 GMT+0000 (Coordinated Universal Time)

1 60606U 24151A 26171.41533874 -.00000367 00000+0 00000+0 0 9998 2 60606 1.3048 270.7935 0000152 182.6537 82.9304 1.00272227 6789
UTC large
Height (km)
Speed (km/s)
/
Latitude / Longitude
Inclination (degrees)
Orbital Period (minutes)
Azimuth
Elevation
Range (km)
Doppler Factor

Next 0 passes for location: London (51.5072 / 0.1276)

No passes found over London.
ZHONGXING-4A